Location: The Jewett Observatory
(46.7288°N, 117.1525°W)
Time: 18:49:41
(UTC-07:00)

Cosmos 1633 - Visible Passes

Search period start: 01 September 2014 00:00
Search period end: 11 September 2014 00:00
Orbit: 495 x 521 km, 82.5° (Epoch: 01 September)

Date Brightness Start Highest point End Pass type
(mag) Time Alt. Az. Time Alt. Az. Time Alt. Az.
02 Sep 5.8 05:31:10 10° NNE 05:34:03 21° ENE 05:36:54 10° ESE visible
03 Sep 6.1 05:14:08 10° NNE 05:16:36 17° ENE 05:19:03 10° ESE visible
03 Sep 6.5 20:43:06 10° W 20:44:22 11° WNW 20:45:37 10° NW visible
04 Sep 6.2 04:57:15 10° NE 04:59:08 13° ENE 05:01:01 10° E visible
04 Sep 6.3 20:24:48 10° W 20:26:53 14° WNW 20:28:58 10° NW visible
05 Sep 6.5 04:40:47 10° NE 04:41:39 11° ENE 04:42:30 10° ENE visible
05 Sep 6.1 20:06:48 10° WSW 20:09:24 18° WNW 20:12:01 10° NNW visible
06 Sep 5.8 19:48:57 10° WSW 19:51:56 22° WNW 19:54:55 10° NNW visible
07 Sep 2.9 05:39:10 10° N 05:42:54 73° E 05:46:36 10° SSE visible
08 Sep 3.4 05:21:49 10° N 05:25:30 55° ENE 05:29:08 10° SSE visible
09 Sep 4.0 05:04:30 10° N 05:08:04 42° ENE 05:11:36 10° SSE visible
10 Sep 4.5 04:47:12 10° N 04:50:36 33° ENE 04:53:59 10° SE visible
